owner,sensor,date,latitude,longitude,vertical_datum,direction_of_sea_water_velocity,sea_water_speed,upward_sea_water_velocity,qcFlag 
TABS,ioos:station:wmo:42044:1,2010-07-01T00:00:00Z,26.1914,-97.0507,2.0,184.5307305,53.16615465,-99999.0,'11111222,11111222,99999999' 
TABS,ioos:station:wmo:42044:1,2010-07-01T00:30:00Z,26.1914,-97.0507,2.0,186.8659582,48.59854525,-99999.0,'11111222,11111222,99999999' 
TABS,ioos:station:wmo:42044:1,2010-07-01T01:00:00Z,26.1914,-97.0507,2.0,185.2290548,44.65585964,-99999.0,'11111222,11111222,99999999' 
TABS,ioos:station:wmo:42044:1,2010-07-01T01:30:00Z,26.1914,-97.0507,2.0,190.9098371,44.96268008,-99999.0,'11111222,11111222,99999999' 
TABS,ioos:station:wmo:42044:1,2010-07-01T02:00:00Z,26.1914,-97.0507,2.0,181.3307561,42.62149927,-99999.0,'11111222,11111222,99999999' 
TABS,ioos:station:wmo:42044:1,2010-07-01T02:30:00Z,26.1914,-97.0507,2.0,187.2864374,40.44664757,-99999.0,'11111222,11111222,99999999' 
TABS,ioos:station:wmo:42044:1,2010-07-01T03:00:00Z,26.1914,-97.0507,2.0,184.7987224,39.08702342,-99999.0,'11111222,11111222,99999999' 
TABS,ioos:station:wmo:42044:1,2010-07-01T03:30:00Z,26.1914,-97.0507,2.0,175.9626453,36.21987576,-99999.0,'11111222,11111222,99999999' 
TABS,ioos:station:wmo:42044:1,2010-07-01T04:00:00Z,26.1914,-97.0507,2.0,180.5821,40.34208349,-99999.0,'11111222,11111222,99999999' 
TABS,ioos:station:wmo:42044:1,2010-07-01T04:30:00Z,26.1914,-97.0507,2.0,180.637977,35.91222772,-99999.0,'11111222,11111222,99999999' 
TABS,ioos:station:wmo:42044:1,2010-07-01T05:00:00Z,26.1914,-97.0507,2.0,185.5483294,37.64638761,-99999.0,'11111222,11111222,99999999' 
TABS,ioos:station:wmo:42044:1,2010-07-01T05:30:00Z,26.1914,-97.0507,2.0,184.1450294,39.70386505,-99999.0,'11111222,11111222,99999999' 
TABS,ioos:station:wmo:42044:1,2010-07-01T06:00:00Z,26.1914,-97.0507,2.0,181.4621509,38.79263461,-99999.0,'11111222,11111222,99999999' 
TABS,ioos:station:wmo:42044:1,2010-07-01T06:30:00Z,26.1914,-97.0507,2.0,187.0645762,36.58778621,-99999.0,'11111222,11111222,99999999' 
TABS,ioos:station:wmo:42044:1,2010-07-01T07:00:00Z,26.1914,-97.0507,2.0,178.8584061,36.64727139,-99999.0,'11111222,11111222,99999999' 
TABS,ioos:station:wmo:42044:1,2010-07-01T07:30:00Z,26.1914,-97.0507,2.0,181.8062073,39.01939133,-99999.0,'11111222,11111222,99999999' 
TABS,ioos:station:wmo:42044:1,2010-07-01T08:00:00Z,26.1914,-97.0507,2.0,184.4313071,38.826075,-99999.0,'11111222,11111222,99999999' 
TABS,ioos:station:wmo:42044:1,2010-07-01T08:30:00Z,26.1914,-97.0507,2.0,190.2056608,35.21722874,-99999.0,'11111222,11111222,99999999' 
TABS,ioos:station:wmo:42044:1,2010-07-01T09:00:00Z,26.1914,-97.0507,2.0,185.9687984,33.75299987,-99999.0,'11111222,11111222,99999999' 
TABS,ioos:station:wmo:42044:1,2010-07-01T09:30:00Z,26.1914,-97.0507,2.0,184.6154821,32.80639572,-99999.0,'11111222,11111222,99999999' 
TABS,ioos:station:wmo:42044:1,2010-07-01T10:00:00Z,26.1914,-97.0507,2.0,184.7758436,34.46968813,-99999.0,'11111222,11111222,99999999' 
TABS,ioos:station:wmo:42044:1,2010-07-01T10:30:00Z,26.1914,-97.0507,2.0,186.0768789,33.9105662,-99999.0,'11111222,11111222,99999999' 
TABS,ioos:station:wmo:42044:1,2010-07-01T11:00:00Z,26.1914,-97.0507,2.0,186.4387929,32.0119384,-99999.0,'11111222,11111222,99999999' 
TABS,ioos:station:wmo:42044:1,2010-07-01T11:30:00Z,26.1914,-97.0507,2.0,182.1145362,30.08048703,-99999.0,'11111222,11111222,99999999' 
TABS,ioos:station:wmo:42044:1,2010-07-01T12:00:00Z,26.1914,-97.0507,2.0,175.3363504,34.19319815,-99999.0,'11111222,11111222,99999999' 
TABS,ioos:station:wmo:42044:1,2010-07-01T12:30:00Z,26.1914,-97.0507,2.0,180.4842747,36.66131067,-99999.0,'11111222,11111222,99999999' 
TABS,ioos:station:wmo:42044:1,2010-07-01T13:00:00Z,26.1914,-97.0507,2.0,176.9673096,35.1592335,-99999.0,'11111222,11111222,99999999' 
TABS,ioos:station:wmo:42044:1,2010-07-01T13:30:00Z,26.1914,-97.0507,2.0,179.1144968,36.24432645,-99999.0,'11111222,11111222,99999999' 
TABS,ioos:station:wmo:42044:1,2010-07-01T14:00:00Z,26.1914,-97.0507,2.0,177.9550095,32.79087983,-99999.0,'11111222,11111222,99999999' 
TABS,ioos:station:wmo:42044:1,2010-07-01T14:30:00Z,26.1914,-97.0507,2.0,177.2520928,35.67101064,-99999.0,'11111222,11111222,99999999' 
TABS,ioos:station:wmo:42044:1,2010-07-01T15:00:00Z,26.1914,-97.0507,2.0,181.7023435,37.69664176,-99999.0,'11111222,11111222,99999999' 
TABS,ioos:station:wmo:42044:1,2010-07-01T15:30:00Z,26.1914,-97.0507,2.0,178.0238663,39.73362556,-99999.0,'11111222,11111222,99999999' 
TABS,ioos:station:wmo:42044:1,2010-07-01T16:00:00Z,26.1914,-97.0507,2.0,185.2502253,35.18763988,-99999.0,'11111222,11111222,99999999' 
TABS,ioos:station:wmo:42044:1,2010-07-01T16:30:00Z,26.1914,-97.0507,2.0,180.6541125,35.90234115,-99999.0,'11111222,11111222,99999999' 
TABS,ioos:station:wmo:42044:1,2010-07-01T17:00:00Z,26.1914,-97.0507,2.0,183.0711054,40.12763885,-99999.0,'11111222,11111222,99999999' 
TABS,ioos:station:wmo:42044:1,2010-07-01T17:30:00Z,26.1914,-97.0507,2.0,187.1471274,38.17665386,-99999.0,'11111222,11111222,99999999' 
TABS,ioos:station:wmo:42044:1,2010-07-01T18:00:00Z,26.1914,-97.0507,2.0,189.4517772,36.53603153,-99999.0,'11111222,11111222,99999999' 
TABS,ioos:station:wmo:42044:1,2010-07-01T18:30:00Z,26.1914,-97.0507,2.0,193.3314121,37.07922464,-99999.0,'11111222,11111222,99999999' 
TABS,ioos:station:wmo:42044:1,2010-07-01T19:00:00Z,26.1914,-97.0507,2.0,188.790478,35.20352965,-99999.0,'11111222,11111222,99999999' 
TABS,ioos:station:wmo:42044:1,2010-07-01T19:30:00Z,26.1914,-97.0507,2.0,187.9857621,38.79624337,-99999.0,'11111222,11111222,99999999' 
TABS,ioos:station:wmo:42044:1,2010-07-01T20:00:00Z,26.1914,-97.0507,2.0,185.1397019,36.16542548,-99999.0,'11111222,11111222,99999999' 
TABS,ioos:station:wmo:42044:1,2010-07-01T20:30:00Z,26.1914,-97.0507,2.0,184.9140578,32.21843572,-99999.0,'11111222,11111222,99999999' 
TABS,ioos:station:wmo:42044:1,2010-07-01T21:00:00Z,26.1914,-97.0507,2.0,183.4221387,35.51333412,-99999.0,'11111222,11111222,99999999' 
TABS,ioos:station:wmo:42044:1,2010-07-01T21:30:00Z,26.1914,-97.0507,2.0,182.9839034,33.6155827,-99999.0,'11111222,11111222,99999999' 
TABS,ioos:station:wmo:42044:1,2010-07-01T22:00:00Z,26.1914,-97.0507,2.0,182.5699386,32.11230294,-99999.0,'11111222,11111222,99999999' 
TABS,ioos:station:wmo:42044:1,2010-07-01T22:30:00Z,26.1914,-97.0507,2.0,182.4372543,29.62680543,-99999.0,'11111222,11111222,99999999' 
TABS,ioos:station:wmo:42044:1,2010-07-01T23:00:00Z,26.1914,-97.0507,2.0,173.2888849,30.89165745,-99999.0,'11111222,11111222,99999999' 
TABS,ioos:station:wmo:42044:1,2010-07-01T23:30:00Z,26.1914,-97.0507,2.0,181.6222376,28.9616108,-99999.0,'11111222,11111222,99999999' 
TABS,ioos:station:wmo:42044:1,2010-07-02T00:00:00Z,26.1914,-97.0507,2.0,182.1962447,28.70108709,-99999.0,'11111222,11111222,99999999' 
TABS,ioos:station:wmo:42044:1,2010-07-02T00:30:00Z,26.1914,-97.0507,2.0,183.6131992,26.0217313,-99999.0,'11111222,11111222,99999999' 
TABS,ioos:station:wmo:42044:1,2010-07-02T01:00:00Z,26.1914,-97.0507,2.0,178.3638077,27.67127933,-99999.0,'11111222,11111222,99999999' 
TABS,ioos:station:wmo:42044:1,2010-07-02T01:30:00Z,26.1914,-97.0507,2.0,185.2822383,23.57010395,-99999.0,'11111222,11111222,99999999' 
TABS,ioos:station:wmo:42044:1,2010-07-02T02:00:00Z,26.1914,-97.0507,2.0,179.150866,26.32288928,-99999.0,'11111222,11111222,99999999' 
TABS,ioos:station:wmo:42044:1,2010-07-02T02:30:00Z,26.1914,-97.0507,2.0,244.7568616,26.35684351,-99999.0,'11111222,11111222,99999999' 
TABS,ioos:station:wmo:42044:1,2010-07-02T03:00:00Z,26.1914,-97.0507,2.0,241.7379148,23.86483606,-99999.0,'11111222,11111222,99999999' 
TABS,ioos:station:wmo:42044:1,2010-07-02T03:30:00Z,26.1914,-97.0507,2.0,239.489413,20.15,-99999.0,'11111222,11111222,99999999' 
TABS,ioos:station:wmo:42044:1,2010-07-02T04:00:00Z,26.1914,-97.0507,2.0,231.4570123,20.62278837,-99999.0,'11111222,11111222,99999999' 
TABS,ioos:station:wmo:42044:1,2010-07-02T04:30:00Z,26.1914,-97.0507,2.0,235.7647846,17.79281316,-99999.0,'11111222,11111222,99999999' 
TABS,ioos:station:wmo:42044:1,2010-07-02T05:00:00Z,26.1914,-97.0507,2.0,239.4525242,18.1604653,-99999.0,'11111222,11111222,99999999' 
TABS,ioos:station:wmo:42044:1,2010-07-02T05:30:00Z,26.1914,-97.0507,2.0,243.1972809,17.27600938,-99999.0,'11111222,11111222,99999999' 
TABS,ioos:station:wmo:42044:1,2010-07-02T06:00:00Z,26.1914,-97.0507,2.0,237.9446175,14.67779616,-99999.0,'11111222,11111222,99999999' 
TABS,ioos:station:wmo:42044:1,2010-07-02T06:30:00Z,26.1914,-97.0507,2.0,236.5479484,16.00046562,-99999.0,'11111222,11111222,99999999' 
TABS,ioos:station:wmo:42044:1,2010-07-02T07:00:00Z,26.1914,-97.0507,2.0,245.4029561,12.10874477,-99999.0,'11111222,11111222,99999999' 
TABS,ioos:station:wmo:42044:1,2010-07-02T07:30:00Z,26.1914,-97.0507,2.0,248.7200244,12.23411623,-99999.0,'11111222,11111222,99999999' 
TABS,ioos:station:wmo:42044:1,2010-07-02T08:00:00Z,26.1914,-97.0507,2.0,238.0518864,9.486985823,-99999.0,'11133222,11111222,99999999' 
TABS,ioos:station:wmo:42044:1,2010-07-02T08:30:00Z,26.1914,-97.0507,2.0,236.8148058,11.63806255,-99999.0,'11111222,11111222,99999999' 
TABS,ioos:station:wmo:42044:1,2010-07-02T09:00:00Z,26.1914,-97.0507,2.0,213.1821515,9.391442914,-99999.0,'11133222,11111222,99999999' 
TABS,ioos:station:wmo:42044:1,2010-07-02T09:30:00Z,26.1914,-97.0507,2.0,222.1315591,10.59866501,-99999.0,'11111222,11111222,99999999' 
TABS,ioos:station:wmo:42044:1,2010-07-02T10:00:00Z,26.1914,-97.0507,2.0,216.133029,10.73488705,-99999.0,'11111222,11111222,99999999' 
TABS,ioos:station:wmo:42044:1,2010-07-02T10:30:00Z,26.1914,-97.0507,2.0,208.8423822,8.664900461,-99999.0,'11133222,11111222,99999999' 
TABS,ioos:station:wmo:42044:1,2010-07-02T11:00:00Z,26.1914,-97.0507,2.0,200.4593544,9.040271014,-99999.0,'11133222,11111222,99999999' 
TABS,ioos:station:wmo:42044:1,2010-07-02T11:30:00Z,26.1914,-97.0507,2.0,197.6673887,7.084137209,-99999.0,'11133222,11111222,99999999' 
TABS,ioos:station:wmo:42044:1,2010-07-02T12:00:00Z,26.1914,-97.0507,2.0,169.2065006,8.917763172,-99999.0,'11133222,11111222,99999999' 
TABS,ioos:station:wmo:42044:1,2010-07-02T12:30:00Z,26.1914,-97.0507,2.0,203.5827448,9.198222654,-99999.0,'11133222,11111222,99999999' 
TABS,ioos:station:wmo:42044:1,2010-07-02T13:00:00Z,26.1914,-97.0507,2.0,192.7479853,9.063420988,-99999.0,'11133222,11111222,99999999' 
TABS,ioos:station:wmo:42044:1,2010-07-02T13:30:00Z,26.1914,-97.0507,2.0,174.3022211,8.76329276,-99999.0,'11133222,11111222,99999999' 
TABS,ioos:station:wmo:42044:1,2010-07-02T14:00:00Z,26.1914,-97.0507,2.0,174.1772679,9.16729513,-99999.0,'11133222,11111222,99999999' 
TABS,ioos:station:wmo:42044:1,2010-07-02T14:30:00Z,26.1914,-97.0507,2.0,173.9633736,8.748508444,-99999.0,'11133222,11111222,99999999' 
TABS,ioos:station:wmo:42044:1,2010-07-02T15:00:00Z,26.1914,-97.0507,2.0,174.0958836,8.84692602,-99999.0,'11133222,11111222,99999999' 
TABS,ioos:station:wmo:42044:1,2010-07-02T15:30:00Z,26.1914,-97.0507,2.0,163.9870085,5.836454403,-99999.0,'11133222,11111222,99999999' 
TABS,ioos:station:wmo:42044:1,2010-07-02T16:00:00Z,26.1914,-97.0507,2.0,168.315815,7.209382775,-99999.0,'11133222,11111222,99999999' 
TABS,ioos:station:wmo:42044:1,2010-07-02T16:30:00Z,26.1914,-97.0507,2.0,149.3908149,5.263392442,-99999.0,'11133222,11111222,99999999' 
TABS,ioos:station:wmo:42044:1,2010-07-02T17:00:00Z,26.1914,-97.0507,2.0,126.8559819,8.286000241,-99999.0,'11133222,11111222,99999999' 
TABS,ioos:station:wmo:42044:1,2010-07-02T17:30:00Z,26.1914,-97.0507,2.0,131.31698,6.164560001,-99999.0,'11133222,11111222,99999999' 
TABS,ioos:station:wmo:42044:1,2010-07-02T18:00:00Z,26.1914,-97.0507,2.0,121.0909369,6.177394273,-99999.0,'11133222,11111222,99999999' 
TABS,ioos:station:wmo:42044:1,2010-07-02T18:30:00Z,26.1914,-97.0507,2.0,109.5024029,0.509215082,-99999.0,'11133222,11111222,99999999' 
TABS,ioos:station:wmo:42044:1,2010-07-02T19:00:00Z,26.1914,-97.0507,2.0,111.3670652,6.614657965,-99999.0,'11133222,11111222,99999999' 
TABS,ioos:station:wmo:42044:1,2010-07-02T19:30:00Z,26.1914,-97.0507,2.0,78.79659133,4.220426519,-99999.0,'11133222,11111222,99999999' 
TABS,ioos:station:wmo:42044:1,2010-07-02T20:00:00Z,26.1914,-97.0507,2.0,78.98730215,6.805321447,-99999.0,'11133222,11111222,99999999' 
TABS,ioos:station:wmo:42044:1,2010-07-02T20:30:00Z,26.1914,-97.0507,2.0,46.20796698,4.696232533,-99999.0,'11133222,11111222,99999999' 
TABS,ioos:station:wmo:42044:1,2010-07-02T21:00:00Z,26.1914,-97.0507,2.0,57.13567197,6.928924881,-99999.0,'11133222,11111222,99999999' 
TABS,ioos:station:wmo:42044:1,2010-07-02T21:30:00Z,26.1914,-97.0507,2.0,73.79101298,9.85160393,-99999.0,'11133222,11111222,99999999' 
TABS,ioos:station:wmo:42044:1,2010-07-02T22:00:00Z,26.1914,-97.0507,2.0,81.45473809,5.854997865,-99999.0,'11133222,11111222,99999999' 
TABS,ioos:station:wmo:42044:1,2010-07-02T22:30:00Z,26.1914,-97.0507,2.0,44.510304406871,12.410177275124,-99999.0,'1111122,1111122,1199999999' 
TABS,ioos:station:wmo:42044:1,2010-07-02T23:00:00Z,26.1914,-97.0507,2.0,50.28343429313,12.363256043616,-99999.0,'1111122,1111122,1199999999' 
TABS,ioos:station:wmo:42044:1,2010-07-02T23:30:00Z,26.1914,-97.0507,2.0,43.888475150686,13.487064172755,-99999.0,'1111122,1111122,1199999999' 
TABS,ioos:station:wmo:42044:1,2010-07-03T00:00:00Z,26.1914,-97.0507,2.0,55.21132534,13.1626821,-99999.0,'11111222,11111222,99999999' 
TABS,ioos:station:wmo:42044:1,2010-07-03T00:30:00Z,26.1914,-97.0507,2.0,41.6558122,15.03040252,-99999.0,'11111222,11111222,99999999' 
TABS,ioos:station:wmo:42044:1,2010-07-03T01:00:00Z,26.1914,-97.0507,2.0,53.57837568,15.59647717,-99999.0,'11111222,11111222,99999999' 
TABS,ioos:station:wmo:42044:1,2010-07-03T01:30:00Z,26.1914,-97.0507,2.0,44.41110532,15.13288472,-99999.0,'11111222,11111222,99999999' 
TABS,ioos:station:wmo:42044:1,2010-07-03T02:00:00Z,26.1914,-97.0507,2.0,44.2813388,17.47398352,-99999.0,'11111222,11111222,99999999' 
TABS,ioos:station:wmo:42044:1,2010-07-03T02:30:00Z,26.1914,-97.0507,2.0,33.9903308,15.88405805,-99999.0,'11111222,11111222,99999999' 
TABS,ioos:station:wmo:42044:1,2010-07-03T03:00:00Z,26.1914,-97.0507,2.0,35.06128679,19.00947132,-99999.0,'11111222,11111222,99999999' 
TABS,ioos:station:wmo:42044:1,2010-07-03T03:30:00Z,26.1914,-97.0507,2.0,39.25398095,19.28068723,-99999.0,'11111222,11111222,99999999' 
TABS,ioos:station:wmo:42044:1,2010-07-03T04:00:00Z,26.1914,-97.0507,2.0,37.18739432,24.55237667,-99999.0,'11111222,11111222,99999999' 
TABS,ioos:station:wmo:42044:1,2010-07-03T04:30:00Z,26.1914,-97.0507,2.0,38.58987049,22.99035667,-99999.0,'11111222,11111222,99999999' 
TABS,ioos:station:wmo:42044:1,2010-07-03T05:00:00Z,26.1914,-97.0507,2.0,32.94337089,23.83194495,-99999.0,'11111222,11111222,99999999' 
TABS,ioos:station:wmo:42044:1,2010-07-03T05:30:00Z,26.1914,-97.0507,2.0,36.82822398,24.67400657,-99999.0,'11111222,11111222,99999999' 
TABS,ioos:station:wmo:42044:1,2010-07-03T06:00:00Z,26.1914,-97.0507,2.0,36.91635713,27.2040089,-99999.0,'11111222,11111222,99999999' 
TABS,ioos:station:wmo:42044:1,2010-07-03T06:30:00Z,26.1914,-97.0507,2.0,34.7597576,25.85353361,-99999.0,'11111222,11111222,99999999' 
TABS,ioos:station:wmo:42044:1,2010-07-03T07:00:00Z,26.1914,-97.0507,2.0,38.20542269,26.77527217,-99999.0,'11111222,11111222,99999999' 
TABS,ioos:station:wmo:42044:1,2010-07-03T07:30:00Z,26.1914,-97.0507,2.0,31.86385806,29.1532108,-99999.0,'11111222,11111222,99999999' 
TABS,ioos:station:wmo:42044:1,2010-07-03T08:00:00Z,26.1914,-97.0507,2.0,36.2666643,31.5277481,-99999.0,'11111222,11111222,99999999' 
TABS,ioos:station:wmo:42044:1,2010-07-03T08:30:00Z,26.1914,-97.0507,2.0,36.24562375,29.54775457,-99999.0,'11111222,11111222,99999999' 
TABS,ioos:station:wmo:42044:1,2010-07-03T09:00:00Z,26.1914,-97.0507,2.0,33.38668688,27.74926666,-99999.0,'11111222,11111222,99999999' 
TABS,ioos:station:wmo:42044:1,2010-07-03T09:30:00Z,26.1914,-97.0507,2.0,35.73747132,30.35593023,-99999.0,'11111222,11111222,99999999' 
TABS,ioos:station:wmo:42044:1,2010-07-03T10:00:00Z,26.1914,-97.0507,2.0,29.47676802,29.40647718,-99999.0,'11111222,11111222,99999999' 
TABS,ioos:station:wmo:42044:1,2010-07-03T10:30:00Z,26.1914,-97.0507,2.0,29.37680886,33.00384372,-99999.0,'11111222,11111222,99999999' 
TABS,ioos:station:wmo:42044:1,2010-07-03T11:00:00Z,26.1914,-97.0507,2.0,28.60621578,31.26664996,-99999.0,'11111222,11111222,99999999' 
TABS,ioos:station:wmo:42044:1,2010-07-03T11:30:00Z,26.1914,-97.0507,2.0,29.32622617,25.62377997,-99999.0,'11111222,11111222,99999999' 
TABS,ioos:station:wmo:42044:1,2010-07-03T12:00:00Z,26.1914,-97.0507,2.0,29.56581508,26.56961046,-99999.0,'11111222,11111222,99999999' 
TABS,ioos:station:wmo:42044:1,2010-07-03T12:30:00Z,26.1914,-97.0507,2.0,28.58925545,25.70398607,-99999.0,'11111222,11111222,99999999' 
TABS,ioos:station:wmo:42044:1,2010-07-03T13:00:00Z,26.1914,-97.0507,2.0,22.19470459,27.87538341,-99999.0,'11111222,11111222,99999999' 
TABS,ioos:station:wmo:42044:1,2010-07-03T13:30:00Z,26.1914,-97.0507,2.0,21.05811221,32.20042546,-99999.0,'11111222,11111222,99999999' 
TABS,ioos:station:wmo:42044:1,2010-07-03T14:00:00Z,26.1914,-97.0507,2.0,14.67656928,32.56244002,-99999.0,'11111222,11111222,99999999' 
TABS,ioos:station:wmo:42044:1,2010-07-03T14:30:00Z,26.1914,-97.0507,2.0,15.95439873,35.6533084,-99999.0,'11111222,11111222,99999999' 
TABS,ioos:station:wmo:42044:1,2010-07-03T15:00:00Z,26.1914,-97.0507,2.0,15.63431567,35.39971328,-99999.0,'11111222,11111222,99999999' 
TABS,ioos:station:wmo:42044:1,2010-07-03T15:30:00Z,26.1914,-97.0507,2.0,24.17170611,38.1224409,-99999.0,'11111222,11111222,99999999' 
TABS,ioos:station:wmo:42044:1,2010-07-03T16:00:00Z,26.1914,-97.0507,2.0,26.82290977,36.7881625,-99999.0,'11111222,11111222,99999999' 
TABS,ioos:station:wmo:42044:1,2010-07-03T16:30:00Z,26.1914,-97.0507,2.0,23.87785138,39.10711572,-99999.0,'11111222,11111222,99999999' 
TABS,ioos:station:wmo:42044:1,2010-07-04T00:00:00Z,26.1914,-97.0507,2.0,25.72295868,26.77309844,-99999.0,'11111222,11111222,99999999' 
TABS,ioos:station:wmo:42044:1,2010-07-04T00:30:00Z,26.1914,-97.0507,2.0,24.70093663,25.29437289,-99999.0,'11111222,11111222,99999999' 
TABS,ioos:station:wmo:42044:1,2010-07-04T01:00:00Z,26.1914,-97.0507,2.0,17.02544073,21.2094908,-99999.0,'11111222,11111222,99999999' 
TABS,ioos:station:wmo:42044:1,2010-07-04T01:30:00Z,26.1914,-97.0507,2.0,41.7468952,18.06740989,-99999.0,'11111222,11111222,99999999' 
TABS,ioos:station:wmo:42044:1,2010-07-04T02:00:00Z,26.1914,-97.0507,2.0,61.02760273,14.90536816,-99999.0,'11111222,11111222,99999999' 
TABS,ioos:station:wmo:42044:1,2010-07-04T02:30:00Z,26.1914,-97.0507,2.0,62.62102922,20.46208689,-99999.0,'11111222,11111222,99999999' 
TABS,ioos:station:wmo:42044:1,2010-07-04T03:00:00Z,26.1914,-97.0507,2.0,68.03098375,17.13418221,-99999.0,'11111222,11111222,99999999' 
TABS,ioos:station:wmo:42044:1,2010-07-04T03:30:00Z,26.1914,-97.0507,2.0,60.24042895,14.44508567,-99999.0,'11111222,11111222,99999999' 
TABS,ioos:station:wmo:42044:1,2010-07-04T04:00:00Z,26.1914,-97.0507,2.0,52.82609097,14.69620699,-99999.0,'11111222,11111222,99999999' 
TABS,ioos:station:wmo:42044:1,2010-07-04T04:30:00Z,26.1914,-97.0507,2.0,51.19535719,16.05315234,-99999.0,'11111222,11111222,99999999' 
TABS,ioos:station:wmo:42044:1,2010-07-04T05:00:00Z,26.1914,-97.0507,2.0,33.31747938,18.33322939,-99999.0,'11111222,11111222,99999999' 
TABS,ioos:station:wmo:42044:1,2010-07-04T05:30:00Z,26.1914,-97.0507,2.0,35.19598112,12.66540564,-99999.0,'11111222,11111222,99999999' 
TABS,ioos:station:wmo:42044:1,2010-07-04T06:00:00Z,26.1914,-97.0507,2.0,12.11679709,12.81549843,-99999.0,'11111222,11111222,99999999' 
TABS,ioos:station:wmo:42044:1,2010-07-04T06:30:00Z,26.1914,-97.0507,2.0,16.35158528,13.56881719,-99999.0,'11111222,11111222,99999999' 
TABS,ioos:station:wmo:42044:1,2010-07-04T07:00:00Z,26.1914,-97.0507,2.0,0.643398804,11.58072968,-99999.0,'11111222,11111222,99999999' 
TABS,ioos:station:wmo:42044:1,2010-07-04T07:30:00Z,26.1914,-97.0507,2.0,326.7285528,9.496720487,-99999.0,'11133222,11111222,99999999' 
TABS,ioos:station:wmo:42044:1,2010-07-04T08:00:00Z,26.1914,-97.0507,2.0,338.9250348,9.816644029,-99999.0,'11133222,11111222,99999999' 
TABS,ioos:station:wmo:42044:1,2010-07-04T08:30:00Z,26.1914,-97.0507,2.0,6.050220886,12.42922765,-99999.0,'11111222,11111222,99999999' 
TABS,ioos:station:wmo:42044:1,2010-07-04T09:00:00Z,26.1914,-97.0507,2.0,14.22481548,11.80184731,-99999.0,'11111222,11111222,99999999' 
TABS,ioos:station:wmo:42044:1,2010-07-04T09:30:00Z,26.1914,-97.0507,2.0,8.970528201,13.01923577,-99999.0,'11111222,11111222,99999999' 
TABS,ioos:station:wmo:42044:1,2010-07-04T10:00:00Z,26.1914,-97.0507,2.0,3.630540429,13.89788833,-99999.0,'11111222,11111222,99999999' 
TABS,ioos:station:wmo:42044:1,2010-07-04T10:30:00Z,26.1914,-97.0507,2.0,8.306257976,10.59109532,-99999.0,'11111222,11111222,99999999' 
TABS,ioos:station:wmo:42044:1,2010-07-04T11:00:00Z,26.1914,-97.0507,2.0,11.7157426,13.29700718,-99999.0,'11111222,11111222,99999999' 
TABS,ioos:station:wmo:42044:1,2010-07-04T11:30:00Z,26.1914,-97.0507,2.0,10.90751866,8.931349282,-99999.0,'11133222,11111222,99999999' 
TABS,ioos:station:wmo:42044:1,2010-07-04T12:00:00Z,26.1914,-97.0507,2.0,33.62971293,10.50880107,-99999.0,'11111222,11111222,99999999' 
TABS,ioos:station:wmo:42044:1,2010-07-04T12:30:00Z,26.1914,-97.0507,2.0,29.6612873,10.18450293,-99999.0,'11111222,11111222,99999999' 
TABS,ioos:station:wmo:42044:1,2010-07-04T13:00:00Z,26.1914,-97.0507,2.0,27.65988755,7.022535155,-99999.0,'11133222,11111222,99999999' 
TABS,ioos:station:wmo:42044:1,2010-07-04T13:30:00Z,26.1914,-97.0507,2.0,41.35484371,9.898307936,-99999.0,'11133222,11111222,99999999' 
TABS,ioos:station:wmo:42044:1,2010-07-04T14:00:00Z,26.1914,-97.0507,2.0,30.16123253,6.488428161,-99999.0,'11133222,11111222,99999999' 
TABS,ioos:station:wmo:42044:1,2010-07-04T14:30:00Z,26.1914,-97.0507,2.0,52.42712178,7.98660128,-99999.0,'11133222,11111222,99999999' 
TABS,ioos:station:wmo:42044:1,2010-07-04T15:00:00Z,26.1914,-97.0507,2.0,72.50507312,7.517745673,-99999.0,'11133222,11111222,99999999' 
TABS,ioos:station:wmo:42044:1,2010-07-04T15:30:00Z,26.1914,-97.0507,2.0,58.95041542,8.007277939,-99999.0,'11133222,11111222,99999999' 
TABS,ioos:station:wmo:42044:1,2010-07-04T16:00:00Z,26.1914,-97.0507,2.0,71.77496751,6.04315315,-99999.0,'11133222,11111222,99999999' 
TABS,ioos:station:wmo:42044:1,2010-07-04T16:30:00Z,26.1914,-97.0507,2.0,78.87462037,12.17887515,-99999.0,'11111222,11111222,99999999' 
TABS,ioos:station:wmo:42044:1,2010-07-04T17:00:00Z,26.1914,-97.0507,2.0,80.9236533,9.762233351,-99999.0,'11133222,11111222,99999999' 
TABS,ioos:station:wmo:42044:1,2010-07-05T00:00:00Z,26.1914,-97.0507,2.0,74.21208986,9.997139591,-99999.0,'11133222,11111222,99999999' 
TABS,ioos:station:wmo:42044:1,2010-07-05T00:30:00Z,26.1914,-97.0507,2.0,56.68944707,13.40185062,-99999.0,'11111222,11111222,99999999' 
TABS,ioos:station:wmo:42044:1,2010-07-05T01:00:00Z,26.1914,-97.0507,2.0,75.91330862,11.01112165,-99999.0,'11111222,11111222,99999999' 
TABS,ioos:station:wmo:42044:1,2010-07-05T01:30:00Z,26.1914,-97.0507,2.0,62.62666041,12.67976735,-99999.0,'11111222,11111222,99999999' 
TABS,ioos:station:wmo:42044:1,2010-07-05T02:00:00Z,26.1914,-97.0507,2.0,65.37228637,10.31864332,-99999.0,'11111222,11111222,99999999' 
TABS,ioos:station:wmo:42044:1,2010-07-05T02:30:00Z,26.1914,-97.0507,2.0,84.05138047,13.41222204,-99999.0,'11111222,11111222,99999999' 
TABS,ioos:station:wmo:42044:1,2010-07-05T03:00:00Z,26.1914,-97.0507,2.0,82.13051884,10.88248593,-99999.0,'11111222,11111222,99999999' 
TABS,ioos:station:wmo:42044:1,2010-07-05T03:30:00Z,26.1914,-97.0507,2.0,93.66896706,12.34530275,-99999.0,'11111222,11111222,99999999' 
TABS,ioos:station:wmo:42044:1,2010-07-05T04:00:00Z,26.1914,-97.0507,2.0,81.6423284,14.24124292,-99999.0,'11111222,11111222,99999999' 
TABS,ioos:station:wmo:42044:1,2010-07-05T04:30:00Z,26.1914,-97.0507,2.0,82.21645867,12.62632963,-99999.0,'11111222,11111222,99999999' 
TABS,ioos:station:wmo:42044:1,2010-07-05T05:00:00Z,26.1914,-97.0507,2.0,80.49713185,13.93117368,-99999.0,'11111222,11111222,99999999' 